Home > Weather > Göttingen > Past weeks

Flag for Germany Weather for the Past 2 Weeks in Göttingen, Lower Saxony, Germany

Now
37 °F

Passing clouds.


Feels Like: 34 °F
Forecast: 31 / 41 °F
Wind: 5 mph from South

Location: Fritzlar Airport

Current Time: Feb 11, 2016 at 2:19:17 AM

Latest Report: Feb 11, 2016 at 1:20 AM


Visibility: N/A

Pressure: 29.53 "Hg

Humidity: 87%

Dew point: 34 °F

Location of GöttingenLocation

Historic Weather in Göttingen — Graph

°F

Göttingen Temperature Yesterday

Maximum temperature yesterday: 39 °F (at 12:20 AM)
Minimum temperature yesterday: 36 °F (at 5:20 AM)
Average temperature yesterday: 38 °F

High & Low Weather Summary for the Past Weeks

 TemperatureHumidityPressure
High54 °F (Feb 1, 10:20 AM)100% (Feb 1, 5:20 AM)30.33 "Hg (Feb 1, 5:20 AM)
Low30 °F (Jan 28, 11:20 PM)50% (Jan 28, 2:20 PM)28.88 "Hg (Feb 9, 6:20 PM)
Average43 °F80%29.87 "Hg
* Reported Jan 27 12:20 AM — Feb 11 12:20 AM, Göttingen, Weather by CustomWeather, © 2016

Note: Actual official high and low records may vary slightly from our data, if they occured in-between our weather recording intervals... More about our weather records

Advertising

Göttingen Weather History for the Previous 24 Hours

 ConditionsComfort  
Time TempWeatherWind HumidityBarometerVisibility
12:20 AM
Thu, Feb 11
39 °FPartly cloudy.8 mph81%29.53 "HgN/A
11:20 PM
Wed, Feb 10
39 °FLight rain. Passing clouds.7 mph87%29.50 "HgN/A
10:20 PM39 °FPassing clouds.6 mph87%29.47 "HgN/A
9:20 PM39 °FPartly cloudy.9 mph87%29.45 "HgN/A
8:20 PM39 °FPassing clouds.10 mph81%29.42 "HgN/A
7:20 PM37 °FPassing clouds.9 mph87%29.42 "HgN/A
6:20 PM37 °FLight rain. Partly cloudy.9 mph87%29.39 "HgN/A
5:20 PM39 °FPartly sunny.8 mph87%29.39 "HgN/A
5:00 PM39 °FBroken clouds.10 mph81%29.39 "HgN/A
4:20 PM39 °FPartly sunny.10 mph87%29.36 "HgN/A
3:20 PM39 °FPartly sunny.9 mph81%29.36 "HgN/A
2:20 PM39 °FLight rain. Partly sunny.16 mph87%29.33 "HgN/A
1:20 PM39 °FBroken clouds.16 mph81%29.33 "HgN/A
12:20 PM37 °FSprinkles. Broken clouds.16 mph87%29.33 "Hg6 mi
11:20 AM37 °FLight rain. Broken clouds.16 mph87%29.30 "Hg4 mi
10:20 AM37 °FLight rain. Broken clouds.16 mph87%29.30 "Hg4 mi
9:20 AM36 °FLight rain. Broken clouds.15 mph87%29.30 "Hg4 mi
8:20 AM37 °FBroken clouds.16 mph75%29.30 "HgN/A
7:20 AM37 °FPartly cloudy.13 mph75%29.27 "HgN/A
6:20 AM36 °FPartly cloudy.15 mph81%29.27 "HgN/A
5:20 AM36 °FPassing clouds.13 mph81%29.27 "HgN/A
4:20 AM37 °FPartly cloudy.12 mph81%29.27 "HgN/A
3:20 AM37 °FLight rain. Passing clouds.10 mph81%29.27 "HgN/A
2:20 AM37 °FPassing clouds.12 mph81%29.27 "HgN/A
Weather by CustomWeather, © 2016

See weather overviewHow to use our weather pages